TimeEDT,TemperatureF,Dew PointF,Humidity,Sea Level PressureIn,VisibilityMPH,Wind Direction,Wind SpeedMPH,Gust SpeedMPH,PrecipitationIn,Events,Conditions,WindDirDegrees,DateUTC
12:53 AM,79.0,73.0,82,30.01,10.0,WSW,4.6,-,N/A,,Clear,240,2013-05-24 04:53:00
1:53 AM,77.0,72.0,84,30.00,10.0,SW,3.5,-,N/A,,Clear,220,2013-05-24 05:53:00
2:53 AM,75.9,72.0,87,29.98,10.0,WSW,3.5,-,N/A,,Clear,240,2013-05-24 06:53:00
3:53 AM,75.0,71.1,87,29.98,10.0,SSW,3.5,-,N/A,,Clear,200,2013-05-24 07:53:00
4:53 AM,75.0,72.0,90,29.99,10.0,WSW,6.9,-,N/A,,Clear,240,2013-05-24 08:53:00
5:53 AM,75.0,72.0,90,30.00,10.0,West,4.6,-,N/A,,Clear,270,2013-05-24 09:53:00
6:53 AM,75.0,71.1,87,30.03,10.0,West,5.8,-,N/A,,Clear,270,2013-05-24 10:53:00
7:53 AM,77.0,69.1,76,30.04,10.0,WSW,5.8,-,N/A,,Clear,250,2013-05-24 11:53:00
8:53 AM,80.1,71.1,74,30.05,10.0,NW,4.6,-,N/A,,Clear,320,2013-05-24 12:53:00
9:53 AM,82.9,69.1,63,30.06,10.0,NNW,9.2,-,N/A,,Clear,330,2013-05-24 13:53:00
10:53 AM,87.1,70.0,57,30.06,10.0,NNW,9.2,-,N/A,,Clear,340,2013-05-24 14:53:00
11:53 AM,90.0,70.0,52,30.06,10.0,Variable,4.6,-,N/A,,Clear,0,2013-05-24 15:53:00
12:53 PM,91.9,66.0,42,30.05,10.0,NNW,9.2,-,N/A,,Partly Cloudy,340,2013-05-24 16:53:00
1:53 PM,88.0,71.1,57,30.04,10.0,ENE,9.2,-,N/A,,Scattered Clouds,70,2013-05-24 17:53:00
2:53 PM,89.1,72.0,57,30.03,10.0,ENE,12.7,-,N/A,,Clear,60,2013-05-24 18:53:00
3:53 PM,88.0,73.0,61,30.03,10.0,East,9.2,-,N/A,,Clear,90,2013-05-24 19:53:00
4:53 PM,87.1,72.0,61,30.03,10.0,East,11.5,-,N/A,,Clear,80,2013-05-24 20:53:00
5:53 PM,84.9,70.0,61,30.05,10.0,NE,13.8,-,N/A,,Clear,50,2013-05-24 21:53:00
6:07 PM,82.4,57.2,42,30.04,10.0,North,11.5,25.3,N/A,,Scattered Clouds,350,2013-05-24 22:07:00
6:53 PM,84.9,69.1,59,30.03,10.0,ENE,11.5,-,0.00,,Scattered Clouds,60,2013-05-24 22:53:00
7:53 PM,82.0,71.1,69,30.03,10.0,East,9.2,-,N/A,,Clear,80,2013-05-24 23:53:00
8:53 PM,81.0,71.1,72,30.06,10.0,East,6.9,-,N/A,,Clear,100,2013-05-25 00:53:00
9:53 PM,81.0,71.1,72,30.07,10.0,ESE,6.9,-,N/A,,Clear,120,2013-05-25 01:53:00
10:53 PM,80.1,71.1,74,30.08,10.0,ESE,4.6,-,N/A,,Clear,110,2013-05-25 02:53:00
11:53 PM,80.1,72.0,76,30.09,10.0,Calm,Calm,-,N/A,,Clear,0,2013-05-25 03:53:00